,,,PA_Meas_PMT16A,,PR_Meas_QMR101_102,,RH_Meas_QMH101,,SR_Meas_QMS101,,TA_Meas_QMH101,,GenWind,,GenWind,
date,time,status,PA,status,PR,status,RH,status,SR,status,TA,status,DirAvg,status,SpdAvg,
2009-02-15, 00:00:04,VALID,1001.74,VALID,0,VALID,93.9435,VALID,0,VALID,22.6104,VALID,16,VALID,0.173438,
2009-02-15, 00:01:04,VALID,1001.71,VALID,0,VALID,93.9893,VALID,0,VALID,22.6104,VALID,16,VALID,0.426953,
2009-02-15, 00:02:04,VALID,1001.71,VALID,0,VALID,93.9588,VALID,0,VALID,22.6104,VALID,16,VALID,0.225391,
2009-02-15, 00:03:04,VALID,1001.67,VALID,0,VALID,93.9359,VALID,0,VALID,22.6104,VALID,16,VALID,0.320703,
2009-02-15, 00:04:04,VALID,1001.63,VALID,0,VALID,94.1266,VALID,0,VALID,22.6494,VALID,16,VALID,0.277734,
2009-02-15, 00:05:04,VALID,1001.64,VALID,0,VALID,93.9969,VALID,0,VALID,22.6494,VALID,16,VALID,0.513281,
2009-02-15, 00:06:04,VALID,1001.61,VALID,0,VALID,94.18,VALID,0,VALID,22.6884,VALID,16,VALID,0.435547,
2009-02-15, 00:07:04,VALID,1001.57,VALID,0,VALID,94.2487,VALID,0,VALID,22.7274,VALID,16,VALID,0.405078,
2009-02-15, 00:08:04,VALID,1001.51,VALID,0,VALID,94.0274,VALID,0,VALID,22.7079,VALID,16,VALID,0.31875,
2009-02-15, 00:09:04,VALID,1001.47,VALID,0,VALID,93.8672,VALID,0,VALID,22.6689,VALID,16,VALID,0,
2009-02-15, 00:10:04,VALID,1001.39,VALID,0,VALID,93.8672,VALID,0,VALID,22.6689,VALID,16,VALID,0,
2009-02-15, 00:11:04,VALID,1001.37,VALID,0,VALID,93.8977,VALID,0,VALID,22.6494,VALID,16,VALID,0,
2009-02-15, 00:12:04,VALID,1001.28,VALID,0,VALID,93.9359,VALID,0,VALID,22.6494,VALID,16,VALID,0,
2009-02-15, 00:13:04,VALID,1001.18,VALID,0,VALID,93.9664,VALID,0,VALID,22.6299,VALID,16,VALID,0.0199219,
2009-02-15, 00:14:04,VALID,1001.17,VALID,0,VALID,94.0656,VALID,0.112286,VALID,22.6689,VALID,17,VALID,0.541406,
2009-02-15, 00:15:04,VALID,1001.11,VALID,0,VALID,94.0198,VALID,0,VALID,22.6689,VALID,104,VALID,0.754687,
2009-02-15, 00:16:04,VALID,1001.15,VALID,0,VALID,94.0885,VALID,0,VALID,22.6884,VALID,106,VALID,0.672656,
2009-02-15, 00:17:04,VALID,1001.18,VALID,0,VALID,93.9588,VALID,0,VALID,22.7079,VALID,107,VALID,0.817969,
2009-02-15, 00:18:04,VALID,1001.14,VALID,0,VALID,93.8748,VALID,0,VALID,22.7274,VALID,87,VALID,1.06445,
2009-02-15, 00:19:04,VALID,1001.14,VALID,0,VALID,93.3713,VALID,0,VALID,22.6867,VALID,74,VALID,1.49258,
2009-02-15, 00:20:04,VALID,1001.14,VALID,0,VALID,93.6383,VALID,0,VALID,22.7469,VALID,71,VALID,1.29375,
2009-02-15, 00:21:04,VALID,1001.1,VALID,0,VALID,93.6383,VALID,0,VALID,22.7274,VALID,68,VALID,1.30469,
2009-02-15, 00:22:04,VALID,1001.07,VALID,0,VALID,93.9893,VALID,0,VALID,22.786,VALID,71,VALID,1.11406,
2009-02-15, 00:23:04,VALID,1001.04,VALID,0,VALID,94.119,VALID,0,VALID,22.7842,VALID,74,VALID,1.3168,
2009-02-15, 00:24:04,VALID,1000.98,VALID,0,VALID,93.8901,VALID,0,VALID,22.8055,VALID,80,VALID,1.075,
2009-02-15, 00:25:04,VALID,1000.97,VALID,0,VALID,93.8443,VALID,0,VALID,22.8055,VALID,77,VALID,1.15313,
2009-02-15, 00:26:04,VALID,1000.93,VALID,0,VALID,93.8825,VALID,0,VALID,22.8055,VALID,93,VALID,0.955859,
2009-02-15, 00:27:04,VALID,1000.89,VALID,0,VALID,94.0274,VALID,0,VALID,22.8055,VALID,98,VALID,0.861328,
2009-02-15, 00:28:04,VALID,1000.88,VALID,0,VALID,93.9817,VALID,0,VALID,22.825,VALID,99,VALID,0.424609,
2009-02-15, 00:29:04,VALID,1000.88,VALID,0,VALID,93.8443,VALID,0,VALID,22.7664,VALID,77,VALID,0.662891,
2009-02-15, 00:30:04,VALID,1000.84,VALID,0,VALID,93.8291,VALID,0,VALID,22.7452,VALID,62,VALID,0.604297,
2009-02-15, 00:31:04,VALID,1000.83,VALID,0,VALID,93.5544,VALID,0,VALID,22.7062,VALID,61,VALID,0.755859,
2009-02-15, 00:32:04,VALID,1000.87,VALID,0,VALID,93.7833,VALID,0.112286,VALID,22.7062,VALID,39,VALID,0.510938,
2009-02-15, 00:33:04,VALID,1000.82,VALID,0,VALID,93.5468,VALID,0.112286,VALID,22.6672,VALID,39,VALID,0.864062,
2009-02-15, 00:34:04,VALID,1000.79,VALID,0,VALID,93.44,VALID,0,VALID,22.6689,VALID,42,VALID,0.892187,
2009-02-15, 00:35:04,VALID,1000.79,VALID,0,VALID,93.4628,VALID,0,VALID,22.6299,VALID,43,VALID,0.655469,
2009-02-15, 00:36:04,VALID,1000.79,VALID,0,VALID,93.501,VALID,0,VALID,22.6104,VALID,67,VALID,0.667188,
2009-02-15, 00:37:04,VALID,1000.74,VALID,0,VALID,93.4552,VALID,0,VALID,22.6104,VALID,67,VALID,0.660156,
2009-02-15, 00:38:04,VALID,1000.69,VALID,0,VALID,93.5849,VALID,0,VALID,22.6104,VALID,69,VALID,0.472656,
2009-02-15, 00:39:04,VALID,1000.64,VALID,0,VALID,93.8367,VALID,0,VALID,22.6104,VALID,69,VALID,0.489453,
2009-02-15, 00:40:04,VALID,1000.63,VALID,0,VALID,93.7985,VALID,0,VALID,22.6299,VALID,69,VALID,0.398047,
2009-02-15, 00:41:04,VALID,1000.63,VALID,0,VALID,93.913,VALID,0,VALID,22.6299,VALID,69,VALID,0.0234375,
2009-02-15, 00:42:05,VALID,1000.61,VALID,0,VALID,93.8062,VALID,0,VALID,22.6104,VALID,69,VALID,0.0621094,
2009-02-15, 00:43:04,VALID,1000.57,VALID,0,VALID,93.8443,VALID,0,VALID,22.6299,VALID,69,VALID,0,
2009-02-15, 00:44:05,VALID,1000.55,VALID,0,VALID,93.8825,VALID,0,VALID,22.5892,VALID,69,VALID,0.0425781,
2009-02-15, 00:45:05,VALID,1000.51,VALID,0,VALID,93.707,VALID,0,VALID,22.5909,VALID,102,VALID,0.412109,
2009-02-15, 00:46:05,VALID,1000.47,VALID,0,VALID,93.7528,VALID,0,VALID,22.5714,VALID,108,VALID,0.405859,
2009-02-15, 00:47:05,VALID,1000.47,VALID,0,VALID,93.913,VALID,0,VALID,22.5909,VALID,97,VALID,0.973437,
2009-02-15, 00:48:05,VALID,1000.44,VALID,0,VALID,93.4552,VALID,0,VALID,22.5714,VALID,90,VALID,1.27344,
2009-02-15, 00:49:05,VALID,1000.42,VALID,0,VALID,93.3866,VALID,0,VALID,22.5519,VALID,74,VALID,1.28828,
2009-02-15, 00:50:05,VALID,1000.39,VALID,0,VALID,93.4323,VALID,0,VALID,22.5519,VALID,79,VALID,1.52656,
2009-02-15, 00:51:05,VALID,1000.34,VALID,0,VALID,93.3103,VALID,0,VALID,22.5714,VALID,85,VALID,1.48008,
2009-02-15, 00:52:05,VALID,1000.3,VALID,0,VALID,93.4247,VALID,0,VALID,22.5909,VALID,105,VALID,1.70195,
2009-02-15, 00:53:05,VALID,1000.29,VALID,0,VALID,93.4705,VALID,0,VALID,22.5909,VALID,104,VALID,1.43398,
2009-02-15, 00:54:05,VALID,1000.27,VALID,0,VALID,93.7223,VALID,0,VALID,22.6104,VALID,115,VALID,1.11328,
2009-02-15, 00:55:05,VALID,1000.25,VALID,0,VALID,93.7833,VALID,0,VALID,22.6299,VALID,107,VALID,0.975391,
2009-02-15, 00:56:05,VALID,1000.23,VALID,0,VALID,93.3331,VALID,0,VALID,22.6104,VALID,107,VALID,1.35039,
2009-02-15, 00:57:05,VALID,1000.22,VALID,0,VALID,93.3637,VALID,0,VALID,22.5892,VALID,106,VALID,1.80391,
2009-02-15, 00:58:05,VALID,1000.17,VALID,0,VALID,93.3331,VALID,0,VALID,22.6299,VALID,106,VALID,1.62227,
2009-02-15, 00:59:05,VALID,1000.16,VALID,0,VALID,93.0966,VALID,0,VALID,22.6104,VALID,73,VALID,1.46758,
2009-02-15, 01:00:05,VALID,1000.15,VALID,0,VALID,93.0737,VALID,0,VALID,22.6104,VALID,60,VALID,1.73438,
2009-02-15, 01:01:05,VALID,1000.12,VALID,0,VALID,93.1271,VALID,0,VALID,22.6316,VALID,61,VALID,1.21953,
2009-02-15, 01:02:05,VALID,1000.08,VALID,0,VALID,93.2568,VALID,0,VALID,22.6299,VALID,71,VALID,0.893359,
2009-02-15, 01:03:05,VALID,1000.05,VALID,0,VALID,93.4857,VALID,0,VALID,22.6299,VALID,79,VALID,0.905078,
2009-02-15, 01:04:05,VALID,1000.04,VALID,0,VALID,93.5926,VALID,0,VALID,22.6494,VALID,95,VALID,0.919922,
2009-02-15, 01:05:05,VALID,1000.02,VALID,0,VALID,93.501,VALID,0,VALID,22.6689,VALID,109,VALID,0.81875,
2009-02-15, 01:06:05,VALID,999.979,VALID,0,VALID,93.5926,VALID,0,VALID,22.6884,VALID,110,VALID,0.507031,
2009-02-15, 01:07:05,VALID,999.95,VALID,0,VALID,93.6307,VALID,0,VALID,22.7079,VALID,139,VALID,0.628125,
2009-02-15, 01:08:05,VALID,999.962,VALID,0,VALID,93.7223,VALID,0,VALID,22.7274,VALID,144,VALID,0.557422,
2009-02-15, 01:09:05,VALID,999.922,VALID,0,VALID,93.6154,VALID,0,VALID,22.7274,VALID,150,VALID,0.975781,
2009-02-15, 01:10:05,VALID,999.917,VALID,0,VALID,93.4781,VALID,0,VALID,22.7274,VALID,152,VALID,0.831641,
2009-02-15, 01:11:05,VALID,999.911,VALID,0,VALID,93.4628,VALID,0,VALID,22.7274,VALID,148,VALID,0.903125,
2009-02-15, 01:12:05,VALID,999.88,VALID,0,VALID,93.3789,VALID,0,VALID,22.7274,VALID,146,VALID,0.976953,
2009-02-15, 01:13:05,VALID,999.866,VALID,0,VALID,93.5163,VALID,0,VALID,22.7469,VALID,154,VALID,0.5625,
2009-02-15, 01:14:05,VALID,999.829,VALID,0,VALID,93.5544,VALID,0,VALID,22.7664,VALID,173,VALID,0.975781,
2009-02-15, 01:15:05,VALID,999.865,VALID,0,VALID,93.4171,VALID,0,VALID,22.7664,VALID,159,VALID,0.935156,
2009-02-15, 01:16:05,VALID,999.831,VALID,0,VALID,93.2721,VALID,0,VALID,22.7664,VALID,164,VALID,1.06953,
2009-02-15, 01:17:05,VALID,999.813,VALID,0,VALID,93.3255,VALID,0,VALID,22.7664,VALID,176,VALID,0.730469,
2009-02-15, 01:18:05,VALID,999.813,VALID,0,VALID,93.3179,VALID,0,VALID,22.786,VALID,162,VALID,0.496094,
2009-02-15, 01:19:05,VALID,999.793,VALID,0,VALID,93.3255,VALID,0,VALID,22.786,VALID,165,VALID,0.360547,
2009-02-15, 01:20:05,VALID,999.75,VALID,0,VALID,93.2874,VALID,0,VALID,22.7664,VALID,167,VALID,0.421484,
2009-02-15, 01:21:05,VALID,999.746,VALID,0,VALID,93.1805,VALID,0,VALID,22.7664,VALID,155,VALID,0.545313,
2009-02-15, 01:22:05,VALID,999.753,VALID,0,VALID,93.1043,VALID,0,VALID,22.7664,VALID,155,VALID,0.369531,
2009-02-15, 01:23:05,VALID,999.765,VALID,0,VALID,93.234,VALID,0,VALID,22.7469,VALID,154,VALID,0.574609,
2009-02-15, 01:24:05,VALID,999.745,VALID,0,VALID,93.028,VALID,0,VALID,22.7469,VALID,152,VALID,0.412891,
2009-02-15, 01:25:05,VALID,999.733,VALID,0,VALID,92.8983,VALID,0,VALID,22.7469,VALID,150,VALID,0.605078,
2009-02-15, 01:26:05,VALID,999.727,VALID,0,VALID,93.0966,VALID,0,VALID,22.7664,VALID,150,VALID,0.416016,
2009-02-15, 01:27:05,VALID,999.702,VALID,0,VALID,93.1195,VALID,0,VALID,22.7664,VALID,181,VALID,0.547656,
2009-02-15, 01:28:05,VALID,999.66,VALID,0,VALID,92.9745,VALID,0,VALID,22.786,VALID,175,VALID,0.830469,
2009-02-15, 01:29:05,VALID,999.639,VALID,0,VALID,93.0127,VALID,0,VALID,22.7664,VALID,180,VALID,0.699219,
2009-02-15, 01:30:05,VALID,999.598,VALID,0,VALID,93.0356,VALID,0,VALID,22.786,VALID,185,VALID,0.671094,
2009-02-15, 01:31:05,VALID,999.596,VALID,0,VALID,93.1043,VALID,0,VALID,22.8055,VALID,195,VALID,0.800391,
2009-02-15, 01:32:05,VALID,999.569,VALID,0,VALID,93.1348,VALID,0,VALID,22.825,VALID,184,VALID,0.714844,
2009-02-15, 01:33:05,VALID,999.542,VALID,0,VALID,92.8754,VALID,0,VALID,22.825,VALID,178,VALID,0.942969,
2009-02-15, 01:34:05,VALID,999.542,VALID,0,VALID,92.822,VALID,0,VALID,22.825,VALID,177,VALID,1.33047,
2009-02-15, 01:35:05,VALID,999.5,VALID,0,VALID,93.0356,VALID,0,VALID,22.8445,VALID,170,VALID,1.11797,
2009-02-15, 01:36:05,VALID,999.53,VALID,0,VALID,93.0966,VALID,0,VALID,22.864,VALID,167,VALID,1.29766,
2009-02-15, 01:37:05,VALID,999.529,VALID,0,VALID,93.2645,VALID,0,VALID,22.8835,VALID,157,VALID,1.10781,
2009-02-15, 01:38:05,VALID,999.523,VALID,0,VALID,93.2492,VALID,0.112286,VALID,22.903,VALID,160,VALID,1.40391,
2009-02-15, 01:39:05,VALID,999.541,VALID,0,VALID,93.2034,VALID,0,VALID,22.903,VALID,159,VALID,1.46719,
2009-02-15, 01:40:05,VALID,999.557,VALID,0,VALID,93.2187,VALID,0,VALID,22.903,VALID,154,VALID,1.26367,
2009-02-15, 01:41:05,VALID,999.6,VALID,0,VALID,93.2492,VALID,0,VALID,22.903,VALID,161,VALID,1.12188,
2009-02-15, 01:42:05,VALID,999.641,VALID,0,VALID,93.2721,VALID,0,VALID,22.9013,VALID,178,VALID,1.49531,
2009-02-15, 01:43:05,VALID,999.654,VALID,0,VALID,93.3942,VALID,0.112286,VALID,22.9225,VALID,181,VALID,1.45938,
2009-02-15, 01:44:05,VALID,999.658,VALID,0,VALID,93.3713,VALID,0.112286,VALID,22.9225,VALID,168,VALID,1.36484,
2009-02-15, 01:45:05,VALID,999.658,VALID,0,VALID,93.4476,VALID,0,VALID,22.9013,VALID,166,VALID,0.969141,
2009-02-15, 01:46:05,VALID,999.663,VALID,0,VALID,93.4476,VALID,0,VALID,22.903,VALID,160,VALID,0.830078,
2009-02-15, 01:47:05,VALID,999.628,VALID,0,VALID,93.6002,VALID,0,VALID,22.9208,VALID,150,VALID,0.864844,
2009-02-15, 01:48:05,VALID,999.627,VALID,0,VALID,93.6383,VALID,0,VALID,22.9225,VALID,158,VALID,1.12227,
2009-02-15, 01:49:05,VALID,999.625,VALID,0,VALID,93.5849,VALID,0,VALID,22.9013,VALID,157,VALID,0.951563,
2009-02-15, 01:50:05,VALID,999.602,VALID,0,VALID,93.5163,VALID,0,VALID,22.903,VALID,173,VALID,1.07578,
2009-02-15, 01:51:05,VALID,999.619,VALID,0,VALID,93.501,VALID,0,VALID,22.8818,VALID,167,VALID,0.999609,
2009-02-15, 01:52:05,VALID,999.569,VALID,0,VALID,93.6002,VALID,0.112286,VALID,22.9225,VALID,176,VALID,0.777734,
2009-02-15, 01:53:05,VALID,999.587,VALID,0,VALID,93.6383,VALID,0,VALID,22.8835,VALID,175,VALID,0.81875,
2009-02-15, 01:54:05,VALID,999.575,VALID,0,VALID,93.5849,VALID,0,VALID,22.8623,VALID,200,VALID,0.986719,
2009-02-15, 01:55:05,VALID,999.542,VALID,0,VALID,93.4857,VALID,0,VALID,22.864,VALID,203,VALID,0.941797,
2009-02-15, 01:56:05,VALID,999.561,VALID,0,VALID,93.5086,VALID,0,VALID,22.8427,VALID,203,VALID,0.790625,
2009-02-15, 01:57:05,VALID,999.577,VALID,0,VALID,93.6154,VALID,0,VALID,22.864,VALID,199,VALID,0.816406,
2009-02-15, 01:58:05,VALID,999.572,VALID,0,VALID,93.6154,VALID,0,VALID,22.8427,VALID,184,VALID,0.946094,
2009-02-15, 01:59:05,VALID,999.592,VALID,0,VALID,93.6765,VALID,0,VALID,22.864,VALID,199,VALID,1.21094,
2009-02-15, 02:00:05,VALID,999.591,VALID,0,VALID,93.5163,VALID,0,VALID,22.8445,VALID,201,VALID,1.42383,
2009-02-15, 02:01:05,VALID,999.566,VALID,0,VALID,93.3179,VALID,0,VALID,22.8232,VALID,203,VALID,1.5457,
2009-02-15, 02:02:05,VALID,999.592,VALID,0,VALID,93.3484,VALID,0,VALID,22.8232,VALID,196,VALID,1.44883,
2009-02-15, 02:03:05,VALID,999.557,VALID,0,VALID,93.2263,VALID,0,VALID,22.8445,VALID,191,VALID,1.43984,
2009-02-15, 02:04:05,VALID,999.567,VALID,0,VALID,93.1882,VALID,0,VALID,22.8445,VALID,192,VALID,0.978906,
2009-02-15, 02:05:05,VALID,999.506,VALID,0,VALID,93.3026,VALID,0,VALID,22.864,VALID,181,VALID,0.819922,
2009-02-15, 02:06:05,VALID,999.514,VALID,0,VALID,93.3713,VALID,0,VALID,22.8232,VALID,190,VALID,0.439844,
2009-02-15, 02:07:05,VALID,999.531,VALID,0,VALID,93.3255,VALID,0.112286,VALID,22.8445,VALID,190,VALID,0.148047,
2009-02-15, 02:08:05,VALID,999.527,VALID,0,VALID,93.3331,VALID,0,VALID,22.8445,VALID,190,VALID,0,
2009-02-15, 02:09:05,VALID,999.49,VALID,0,VALID,93.2874,VALID,0,VALID,22.825,VALID,190,VALID,0,
2009-02-15, 02:10:05,VALID,999.506,VALID,0,VALID,93.4705,VALID,0,VALID,22.8445,VALID,254,VALID,0.478906,
2009-02-15, 02:11:05,VALID,999.53,VALID,0,VALID,93.5239,VALID,0,VALID,22.825,VALID,313,VALID,0.508594,
2009-02-15, 02:12:05,VALID,999.549,VALID,0,VALID,93.5239,VALID,0,VALID,22.825,VALID,313,VALID,0.571875,
2009-02-15, 02:13:05,VALID,999.53,VALID,0,VALID,93.5697,VALID,0,VALID,22.825,VALID,313,VALID,0.423438,
2009-02-15, 02:14:05,VALID,999.536,VALID,0,VALID,93.6383,VALID,0,VALID,22.8037,VALID,313,VALID,0.211328,
2009-02-15, 02:15:05,VALID,999.555,VALID,0,VALID,93.6154,VALID,0,VALID,22.7842,VALID,313,VALID,0.215625,
2009-02-15, 02:16:05,VALID,999.526,VALID,0,VALID,93.6765,VALID,0,VALID,22.786,VALID,313,VALID,0.189844,
2009-02-15, 02:17:05,VALID,999.52,VALID,0,VALID,93.7528,VALID,0.112286,VALID,22.786,VALID,313,VALID,0.128125,
2009-02-15, 02:18:05,VALID,999.491,VALID,0,VALID,93.8596,VALID,0,VALID,22.7664,VALID,313,VALID,0.294922,
2009-02-15, 02:19:05,VALID,999.504,VALID,0,VALID,93.8825,VALID,0,VALID,22.7452,VALID,336,VALID,0.265625,
2009-02-15, 02:20:05,VALID,999.496,VALID,0,VALID,93.8977,VALID,0,VALID,22.7664,VALID,336,VALID,0.146484,
2009-02-15, 02:21:05,VALID,999.504,VALID,0,VALID,93.9283,VALID,0.112286,VALID,22.7469,VALID,336,VALID,0,
2009-02-15, 02:22:05,VALID,999.547,VALID,0,VALID,93.9969,VALID,0,VALID,22.7257,VALID,336,VALID,0,
2009-02-15, 02:23:05,VALID,999.519,VALID,0,VALID,94.0427,VALID,0,VALID,22.7274,VALID,336,VALID,0,
2009-02-15, 02:24:05,VALID,999.493,VALID,0,VALID,94.119,VALID,0,VALID,22.7062,VALID,336,VALID,0.319922,
2009-02-15, 02:25:05,VALID,999.472,VALID,0,VALID,94.1571,VALID,0,VALID,22.7469,VALID,336,VALID,0.377734,
2009-02-15, 02:26:05,VALID,999.43,VALID,0,VALID,94.2182,VALID,0,VALID,22.7452,VALID,336,VALID,0.458203,
2009-02-15, 02:27:05,VALID,999.414,VALID,0,VALID,94.2334,VALID,0,VALID,22.7664,VALID,336,VALID,0.645312,
2009-02-15, 02:28:05,VALID,999.453,VALID,0,VALID,94.2029,VALID,0,VALID,22.7664,VALID,36,VALID,0.796484,
2009-02-15, 02:29:05,VALID,999.448,VALID,0,VALID,94.1571,VALID,0,VALID,22.7664,VALID,36,VALID,1.26445,
2009-02-15, 02:30:05,VALID,999.501,VALID,0,VALID,94.2182,VALID,0,VALID,22.786,VALID,25,VALID,1.12109,
2009-02-15, 02:31:05,VALID,999.509,VALID,0,VALID,94.2487,VALID,0,VALID,22.8055,VALID,22,VALID,1.41172,
2009-02-15, 02:32:05,VALID,999.508,VALID,0,VALID,94.2411,VALID,0,VALID,22.8055,VALID,24,VALID,1.28633,
2009-02-15, 02:33:05,VALID,999.514,VALID,0,VALID,94.1419,VALID,0,VALID,22.786,VALID,26,VALID,1.35273,
2009-02-15, 02:34:05,VALID,999.527,VALID,0,VALID,94.1419,VALID,0,VALID,22.786,VALID,38,VALID,1.09063,
2009-02-15, 02:35:05,VALID,999.535,VALID,0,VALID,94.1877,VALID,0,VALID,22.786,VALID,35,VALID,1.16367,
2009-02-15, 02:36:05,VALID,999.56,VALID,0,VALID,94.1877,VALID,0.112286,VALID,22.786,VALID,31,VALID,0.951172,
2009-02-15, 02:37:05,VALID,999.582,VALID,0,VALID,94.2105,VALID,0,VALID,22.7664,VALID,30,VALID,0.864844,
2009-02-15, 02:38:05,VALID,999.592,VALID,0,VALID,94.2029,VALID,0,VALID,22.786,VALID,30,VALID,1.07344,
2009-02-15, 02:39:05,VALID,999.666,VALID,0,VALID,94.2563,VALID,0,VALID,22.786,VALID,30,VALID,0.861328,
2009-02-15, 02:40:05,VALID,999.691,VALID,0,VALID,94.2716,VALID,0.112286,VALID,22.7452,VALID,30,VALID,0.966797,
2009-02-15, 02:41:05,VALID,999.678,VALID,0,VALID,94.2792,VALID,0,VALID,22.7664,VALID,30,VALID,0.490234,
2009-02-15, 02:42:05,VALID,999.669,VALID,0,VALID,94.3403,VALID,0,VALID,22.7664,VALID,30,VALID,0.389844,
2009-02-15, 02:43:05,VALID,999.669,VALID,0,VALID,94.4623,VALID,0,VALID,22.786,VALID,35,VALID,0.439063,
2009-02-15, 02:44:05,VALID,999.652,VALID,0,VALID,94.4776,VALID,0,VALID,22.8055,VALID,66,VALID,0.454297,
2009-02-15, 02:45:05,VALID,999.676,VALID,0,VALID,94.4547,VALID,0,VALID,22.8037,VALID,66,VALID,0.190625,
2009-02-15, 02:46:05,VALID,999.693,VALID,0,VALID,94.47,VALID,0,VALID,22.825,VALID,66,VALID,0.272266,
2009-02-15, 02:47:05,VALID,999.721,VALID,0,VALID,94.4928,VALID,0,VALID,22.825,VALID,55,VALID,0.598437,
2009-02-15, 02:48:05,VALID,999.715,VALID,0,VALID,94.4547,VALID,0,VALID,22.8445,VALID,43,VALID,0.597656,
2009-02-15, 02:49:05,VALID,999.725,VALID,0,VALID,94.5462,VALID,0,VALID,22.8445,VALID,42,VALID,0.626953,
2009-02-15, 02:50:05,VALID,999.722,VALID,0,VALID,94.4852,VALID,0,VALID,22.8427,VALID,44,VALID,0.832812,
2009-02-15, 02:51:05,VALID,999.754,VALID,0,VALID,94.5386,VALID,0,VALID,22.903,VALID,41,VALID,0.675,
2009-02-15, 02:52:05,VALID,999.718,VALID,0,VALID,94.5539,VALID,0,VALID,22.903,VALID,39,VALID,0.606641,
2009-02-15, 02:53:05,VALID,999.743,VALID,0,VALID,94.6073,VALID,0,VALID,22.9225,VALID,58,VALID,0.675,
2009-02-15, 02:54:05,VALID,999.71,VALID,0,VALID,94.6149,VALID,0,VALID,22.9208,VALID,72,VALID,0.924219,
2009-02-15, 02:55:05,VALID,999.76,VALID,0,VALID,94.6302,VALID,0,VALID,22.9615,VALID,77,VALID,0.985156,
2009-02-15, 02:56:05,VALID,999.753,VALID,0,VALID,94.386,VALID,0,VALID,22.9615,VALID,82,VALID,0.907812,
2009-02-15, 02:57:05,VALID,999.761,VALID,0,VALID,94.3555,VALID,0,VALID,22.9403,VALID,82,VALID,0.633594,
2009-02-15, 02:58:05,VALID,999.799,VALID,0,VALID,94.3479,VALID,0,VALID,22.942,VALID,85,VALID,0.518359,
2009-02-15, 02:59:05,VALID,999.802,VALID,0,VALID,94.3555,VALID,0,VALID,22.9403,VALID,89,VALID,0.517969,
2009-02-15, 03:00:05,VALID,999.784,VALID,0,VALID,94.2487,VALID,0,VALID,22.942,VALID,98,VALID,0.579687,
2009-02-15, 03:01:05,VALID,999.772,VALID,0,VALID,94.1571,VALID,0,VALID,22.942,VALID,98,VALID,0.384766,
2009-02-15, 03:02:05,VALID,999.768,VALID,0,VALID,94.1266,VALID,0,VALID,22.9013,VALID,98,VALID,0.25625,
2009-02-15, 03:03:05,VALID,999.755,VALID,0,VALID,94.0961,VALID,0,VALID,22.903,VALID,98,VALID,0.0609375,
2009-02-15, 03:04:05,VALID,999.795,VALID,0,VALID,94.1343,VALID,0,VALID,22.8818,VALID,98,VALID,0,
2009-02-15, 03:05:05,VALID,999.795,VALID,0,VALID,94.1495,VALID,0,VALID,22.8835,VALID,98,VALID,0,
2009-02-15, 03:06:05,VALID,999.804,VALID,0,VALID,94.1495,VALID,0,VALID,22.9243,VALID,98,VALID,0.0261719,
2009-02-15, 03:07:05,VALID,999.783,VALID,0,VALID,94.0274,VALID,0,VALID,22.9047,VALID,98,VALID,0.3125,
2009-02-15, 03:08:05,VALID,999.808,VALID,0,VALID,94.0656,VALID,0,VALID,22.8835,VALID,98,VALID,0.233203,
2009-02-15, 03:09:05,VALID,999.821,VALID,0,VALID,94.0961,VALID,0,VALID,22.9243,VALID,98,VALID,0.232422,
2009-02-15, 03:10:05,VALID,999.859,VALID,0,VALID,94.0808,VALID,0,VALID,22.9243,VALID,98,VALID,0.278906,
2009-02-15, 03:11:05,VALID,999.893,VALID,0,VALID,94.0961,VALID,0,VALID,22.9243,VALID,98,VALID,0.357031,
2009-02-15, 03:12:05,VALID,999.92,VALID,0,VALID,94.058,VALID,0,VALID,22.942,VALID,98,VALID,0.413281,
2009-02-15, 03:13:05,VALID,999.936,VALID,0,VALID,94.18,VALID,0,VALID,22.9633,VALID,61,VALID,0.649219,
2009-02-15, 03:14:05,VALID,999.957,VALID,0,VALID,94.1266,VALID,0,VALID,22.9828,VALID,47,VALID,0.791406,
2009-02-15, 03:15:05,VALID,999.97,VALID,0,VALID,94.2182,VALID,0,VALID,23.0218,VALID,45,VALID,0.901953,
2009-02-15, 03:16:05,VALID,999.994,VALID,0,VALID,94.0732,VALID,0,VALID,23.0413,VALID,51,VALID,0.898828,
2009-02-15, 03:17:05,VALID,999.977,VALID,0,VALID,93.8291,VALID,0,VALID,23.0413,VALID,59,VALID,0.910156,
2009-02-15, 03:18:05,VALID,999.997,VALID,0,VALID,93.8748,VALID,0,VALID,23.0608,VALID,50,VALID,0.659375,
2009-02-15, 03:19:05,VALID,1000.02,VALID,0,VALID,93.974,VALID,0,VALID,23.0804,VALID,43,VALID,0.480469,
2009-02-15, 03:20:05,VALID,1000.02,VALID,0,VALID,93.913,VALID,0,VALID,23.0981,VALID,43,VALID,0.504297,
2009-02-15, 03:21:05,VALID,999.993,VALID,0,VALID,93.9511,VALID,0,VALID,23.0769,VALID,43,VALID,0.510547,
2009-02-15, 03:22:05,VALID,999.961,VALID,0,VALID,94.0656,VALID,0,VALID,23.1371,VALID,66,VALID,0.739453,
2009-02-15, 03:23:05,VALID,999.988,VALID,0,VALID,93.9511,VALID,0,VALID,23.1371,VALID,94,VALID,0.735156,
2009-02-15, 03:24:05,VALID,999.979,VALID,0,VALID,93.913,VALID,0,VALID,23.1566,VALID,91,VALID,0.568359,
2009-02-15, 03:25:04,VALID,999.97,VALID,0,VALID,93.8214,VALID,0,VALID,23.1371,VALID,104,VALID,0.954297,
2009-02-15, 03:26:04,VALID,999.958,VALID,0,VALID,93.852,VALID,0,VALID,23.1354,VALID,113,VALID,0.8125,
2009-02-15, 03:27:04,VALID,999.96,VALID,0,VALID,93.9435,VALID,0,VALID,23.1744,VALID,117,VALID,0.585547,
2009-02-15, 03:28:04,VALID,999.95,VALID,0,VALID,94.0198,VALID,0,VALID,23.1957,VALID,164,VALID,0.557422,
2009-02-15, 03:29:04,VALID,999.962,VALID,0,VALID,94.0045,VALID,0,VALID,23.2152,VALID,188,VALID,0.756641,
2009-02-15, 03:30:04,VALID,1000.01,VALID,0,VALID,93.8062,VALID,0,VALID,23.1957,VALID,179,VALID,1.07813,
2009-02-15, 03:31:04,VALID,1000.01,VALID,0.5,VALID,93.6994,VALID,0,VALID,23.1744,VALID,179,VALID,0.882422,
2009-02-15, 03:32:04,VALID,999.953,VALID,0,VALID,93.8291,VALID,0,VALID,23.1957,VALID,162,VALID,0.794141,
2009-02-15, 03:33:04,VALID,999.964,VALID,0,VALID,93.646,VALID,0,VALID,23.1957,VALID,159,VALID,0.495703,
2009-02-15, 03:34:04,VALID,999.984,VALID,0,VALID,93.3866,VALID,0,VALID,23.1566,VALID,121,VALID,0.791016,
2009-02-15, 03:35:04,VALID,999.988,VALID,0,VALID,93.6154,VALID,0,VALID,23.1957,VALID,121,VALID,0.830078,
2009-02-15, 03:36:04,VALID,999.958,VALID,0.5,VALID,93.6078,VALID,0,VALID,23.1957,VALID,123,VALID,0.777344,
2009-02-15, 03:37:04,VALID,1000.01,VALID,0,VALID,93.6307,VALID,0,VALID,23.2169,VALID,125,VALID,0.821094,
2009-02-15, 03:38:04,VALID,999.994,VALID,0,VALID,93.6994,VALID,0,VALID,23.2152,VALID,121,VALID,0.5375,
2009-02-15, 03:39:04,VALID,1000.01,VALID,0,VALID,93.7757,VALID,0,VALID,23.2152,VALID,129,VALID,0.562891,
2009-02-15, 03:40:04,VALID,1000.05,VALID,0,VALID,93.852,VALID,0,VALID,23.2347,VALID,133,VALID,0.175,
2009-02-15, 03:41:04,VALID,1000.09,VALID,0,VALID,93.8977,VALID,0,VALID,23.2542,VALID,130,VALID,0.0550781,
2009-02-15, 03:42:04,VALID,1000.04,VALID,0.5,VALID,93.9511,VALID,0,VALID,23.2542,VALID,58,VALID,0.844922,
2009-02-15, 03:43:04,VALID,1000.05,VALID,0.5,VALID,93.8443,VALID,0,VALID,23.2542,VALID,33,VALID,1.22266,
2009-02-15, 03:44:04,VALID,1000.09,VALID,0,VALID,93.8748,VALID,0,VALID,23.2542,VALID,40,VALID,0.733594,
2009-02-15, 03:45:04,VALID,1000.14,VALID,0,VALID,93.8062,VALID,0,VALID,23.2347,VALID,28,VALID,0.91875,
2009-02-15, 03:46:04,VALID,1000.16,VALID,0.5,VALID,93.7146,VALID,0,VALID,23.1957,VALID,33,VALID,0.73125,